Middlebury State AP, Middlebu, VT

10:20 AM EST on November 21, 2019 (GMT -0500)
Middlebury State AP, Middlebu

Weather History for K6B0 - August, 2019

Change the Weather History Date:

Tuesday, August 27, 2019

  Actual Average (KRUT) Record (KRUT)
Temperature  
Mean Temperature 62 °F -  
Max Temperature 75 °F 79 °F 92 °F (1948)
Min Temperature 48 °F 55 °F 37 °F (1954)
Degree Days  
Heating Degree Days 4    
Growing Degree Days 12 (Base 50)    
Moisture  
Dew Point 54 °F    
Average Humidity 72    
Maximum Humidity 95    
Minimum Humidity 50    
Precipitation  
Precipitation 0.00 in - - ()
Sea Level Pressure  
Sea Level Pressure 30.04 in    
Wind  
Wind Speed 3 mph ()    
Max Wind Speed 10 mph    
Max Gust Speed -    
Visibility 10.0 miles    
Events      
Averages and records for this station are not official NWS values.
T = Trace of Precipitation, MM = Missing Value Source: Averaged Metar Reports

Daily Weather History Graph

Daily Weather History Graph

Search for Another Location

Airport or City:

Astronomy

Aug. 27, 2019 Rise Set
Actual Time 6:09 AM EDT 7:37 PM EDT
Civil Twilight 5:39 AM EDT 8:07 PM EDT
Nautical Twilight 5:03 AM EDT 8:43 PM EDT
Astronomical Twilight 4:24 AM EDT 9:22 PM EDT
Moon 2:23 AM EDT (8/27) 6:02 PM EDT (8/27)
Length of Visible Light 14h 27m
Length of Day
13h 27m
Waning Crescent, 11% of the Moon is Illuminated
Aug 27
Waning Crescent
Aug 30
New
Sep 5
First Quarter
Sep 14
Full
Sep 21
Last Quarter

Hourly Weather History & Observations

Time (EDT) Temp. Dew Point Humidity Pressure Visibility Wind Dir Wind Speed Gust Speed Precip Events Conditions
12:15 AM 52.9 °F 48.9 °F 86% 30.13 in 10.0 mi Calm Calm - N/A   Clear
12:38 AM 52.5 °F 49.1 °F 88% 30.13 in 10.0 mi Calm Calm - N/A   Clear
12:56 AM 52.2 °F 48.7 °F 88% 30.12 in 10.0 mi Calm Calm - N/A   Clear
1:15 AM 51.6 °F 47.7 °F 86% 30.12 in 10.0 mi Calm Calm - N/A   Clear
1:16 AM 51.6 °F 47.7 °F 86% 30.12 in 10.0 mi Calm Calm - N/A   Clear
1:35 AM 50.9 °F 47.5 °F 88% 30.12 in 10.0 mi Calm Calm - N/A   Clear
1:36 AM 50.9 °F 47.3 °F 87% 30.12 in 10.0 mi Calm Calm - N/A   Clear
1:58 AM 50.4 °F 47.3 °F 89% 30.12 in 10.0 mi Calm Calm - N/A   Clear
2:16 AM 51.1 °F 46.9 °F 86% 30.12 in 10.0 mi Calm Calm - N/A   Clear
2:36 AM 49.8 °F 47.3 °F 91% 30.12 in 10.0 mi Calm Calm - N/A   Clear
2:55 AM 50.4 °F 47.5 °F 90% 30.12 in 10.0 mi Calm Calm - N/A   Clear
2:56 AM 50.5 °F 47.3 °F 89% 30.12 in 10.0 mi Calm Calm - N/A   Clear
3:15 AM 50.0 °F 47.1 °F 90% 30.12 in 10.0 mi Calm Calm - N/A   Clear
3:19 AM 50.0 °F 47.1 °F 90% 30.12 in 10.0 mi Calm Calm - N/A   Clear
3:37 AM 50.0 °F 47.3 °F 90% 30.11 in 10.0 mi Calm Calm - N/A   Clear
3:55 AM 49.5 °F 47.5 °F 93% 30.11 in 10.0 mi Calm Calm - N/A   Clear
4:15 AM 48.7 °F 47.3 °F 95% 30.10 in 10.0 mi Calm Calm - N/A   Clear
4:35 AM 49.5 °F 47.7 °F 94% 30.10 in 10.0 mi South 3.5 mph - N/A   Clear
4:58 AM 50.0 °F 47.5 °F 91% 30.10 in 10.0 mi South 3.5 mph - N/A   Clear
5:16 AM 50.7 °F 47.8 °F 90% 30.10 in 10.0 mi South 3.5 mph - N/A   Clear
5:36 AM 50.4 °F 47.8 °F 91% 30.10 in 10.0 mi South 3.5 mph - N/A   Clear
5:55 AM 51.4 °F 47.5 °F 86% 30.10 in 10.0 mi South 3.5 mph - N/A   Clear
5:56 AM 51.4 °F 47.5 °F 86% 30.10 in 10.0 mi South 3.5 mph - N/A   Clear
6:15 AM 52.9 °F 48.2 °F 84% 30.11 in 10.0 mi South 3.5 mph - N/A   Clear
6:19 AM 52.9 °F 48.6 °F 85% 30.10 in 10.0 mi South 3.5 mph - N/A   Clear
6:37 AM 53.4 °F 49.1 °F 85% 30.10 in 10.0 mi South 3.5 mph - N/A   Clear
6:55 AM 52.7 °F 49.3 °F 88% 30.10 in 10.0 mi Calm Calm - N/A   Clear
7:15 AM 52.3 °F 49.3 °F 89% 30.10 in 10.0 mi Calm Calm - N/A   Clear
7:35 AM 54.7 °F 51.4 °F 89% 30.10 in 10.0 mi South 3.5 mph - N/A   Clear
7:59 AM 57.9 °F 53.2 °F 84% 30.10 in 10.0 mi Calm Calm - N/A   Clear
8:16 AM 60.6 °F 54.5 °F 80% 30.10 in 10.0 mi South 3.5 mph - N/A   Clear
8:36 AM 63.3 °F 54.9 °F 74% 30.10 in 10.0 mi South 5.8 mph - N/A   Clear
8:55 AM 65.1 °F 55.2 °F 70% 30.09 in 10.0 mi South 6.9 mph - N/A   Clear
8:56 AM 65.1 °F 55.0 °F 70% 30.09 in 10.0 mi South 5.8 mph - N/A   Clear
9:15 AM 64.0 °F 53.8 °F 69% 30.09 in 10.0 mi South 6.9 mph - N/A   Clear
9:19 AM 63.9 °F 54.0 °F 70% 30.09 in 10.0 mi South 6.9 mph - N/A   Clear
9:37 AM 65.3 °F 54.5 °F 68% 30.09 in 10.0 mi South 8.1 mph - N/A   Clear
9:55 AM 66.4 °F 55.2 °F 67% 30.09 in 10.0 mi South 9.2 mph - N/A   Clear
10:15 AM 67.5 °F 55.0 °F 64% 30.09 in 10.0 mi SSW 6.9 mph - N/A   Clear
10:35 AM 68.0 °F 54.9 °F 63% 30.09 in 10.0 mi South 10.4 mph - N/A   Clear
10:36 AM 67.8 °F 55.0 °F 64% 30.09 in 10.0 mi SSW 9.2 mph - N/A   Clear
10:59 AM 68.0 °F 54.9 °F 63% 30.09 in 10.0 mi South 8.1 mph - N/A   Clear
11:17 AM 67.3 °F 55.4 °F 66% 30.08 in 10.0 mi SSW 8.1 mph - N/A   Clear
11:36 AM 69.8 °F 55.8 °F 61% 30.07 in 10.0 mi South 6.9 mph - N/A   Clear
11:55 AM 70.2 °F 55.8 °F 60% 30.07 in 10.0 mi South 3.5 mph - N/A   Clear
11:56 AM 70.3 °F 55.9 °F 60% 30.07 in 10.0 mi Calm Calm - N/A   Clear
12:15 PM 71.2 °F 55.9 °F 58% 30.05 in 10.0 mi South 5.8 mph - N/A   Scattered Clouds
12:37 PM 71.6 °F 54.0 °F 54% 30.04 in 10.0 mi SSW 6.9 mph - N/A   Clear
12:55 PM 72.1 °F 53.1 °F 51% 30.04 in 10.0 mi SSW 5.8 mph - N/A   Clear
1:15 PM 73.2 °F 53.8 °F 50% 30.03 in 10.0 mi SSW 9.2 mph - N/A   Clear
1:16 PM 73.0 °F 54.0 °F 51% 30.03 in 10.0 mi SSW 8.1 mph - N/A   Clear
1:35 PM 73.2 °F 54.5 °F 52% 30.02 in 10.0 mi South 8.1 mph - N/A   Clear
1:36 PM 73.2 °F 55.0 °F 53% 30.02 in 10.0 mi South 6.9 mph - N/A   Clear
1:59 PM 73.4 °F 54.7 °F 52% 30.01 in 10.0 mi South 10.4 mph - N/A   Clear
2:17 PM 74.1 °F 54.1 °F 50% 30.00 in 10.0 mi South 9.2 mph - N/A   Clear
2:35 PM 74.7 °F 55.4 °F 51% 29.99 in 10.0 mi SSW 4.6 mph - N/A   Clear
2:55 PM 75.2 °F 55.8 °F 51% 29.99 in 10.0 mi SSW 8.1 mph - N/A   Clear
2:56 PM 75.2 °F 55.8 °F 51% 29.99 in 10.0 mi SSW 6.9 mph - N/A   Clear
3:15 PM 74.1 °F 54.9 °F 51% 29.98 in 10.0 mi SW 5.8 mph - N/A   Clear
3:19 PM 73.6 °F 54.0 °F 50% 29.98 in 10.0 mi SSW 3.5 mph - N/A   Clear
3:37 PM 73.9 °F 54.5 °F 51% 29.98 in 10.0 mi SSW 6.9 mph - N/A   Clear
3:55 PM 74.5 °F 55.4 °F 51% 29.98 in 10.0 mi SW 5.8 mph - N/A   Clear
4:15 PM 73.4 °F 55.4 °F 53% 29.98 in 10.0 mi SSW 6.9 mph - N/A   Clear
4:16 PM 73.4 °F 55.8 °F 54% 29.98 in 10.0 mi SSW 6.9 mph - N/A   Clear
4:35 PM 73.4 °F 56.3 °F 55% 29.98 in 10.0 mi SSW 3.5 mph - N/A   Clear
4:58 PM 72.9 °F 55.9 °F 55% 29.97 in 10.0 mi SSW 3.5 mph - N/A   Clear
5:16 PM 72.3 °F 59.2 °F 63% 29.97 in 10.0 mi SSE 3.5 mph - N/A   Clear
5:35 PM 71.8 °F 60.6 °F 68% 29.97 in 10.0 mi South 6.9 mph - N/A   Clear
5:55 PM 70.7 °F 59.7 °F 68% 29.97 in 10.0 mi Calm Calm - N/A   Clear
5:56 PM 70.7 °F 59.7 °F 68% 29.97 in 10.0 mi Calm Calm - N/A   Clear
6:15 PM 69.3 °F 60.3 °F 73% 29.97 in 10.0 mi SSE 4.6 mph - N/A   Clear
6:19 PM 69.3 °F 59.4 °F 71% 29.97 in 10.0 mi SSE 3.5 mph - N/A   Clear
6:37 PM 69.3 °F 58.3 °F 68% 29.96 in 10.0 mi Calm Calm - N/A   Clear
6:55 PM 69.4 °F 59.2 °F 70% 29.96 in 10.0 mi Calm Calm - N/A   Clear
7:15 PM 68.9 °F 57.4 °F 67% 29.96 in 10.0 mi SSE 3.5 mph - N/A   Clear
7:16 PM 68.9 °F 57.4 °F 67% 29.96 in 10.0 mi SSE 3.5 mph - N/A   Clear
7:35 PM 67.5 °F 58.3 °F 72% 29.96 in 10.0 mi SE 3.5 mph - N/A   Clear
7:36 PM 67.5 °F 58.3 °F 72% 29.96 in 10.0 mi SE 3.5 mph - N/A   Clear
7:58 PM 66.0 °F 58.3 °F 76% 29.97 in 10.0 mi Calm Calm - N/A   Clear
8:16 PM 64.9 °F 58.5 °F 79% 29.97 in 10.0 mi Calm Calm - N/A   Clear
8:35 PM 64.0 °F 57.7 °F 80% 29.97 in 10.0 mi ESE 3.5 mph - N/A   Clear
8:36 PM 64.2 °F 57.7 °F 79% 29.97 in 10.0 mi ESE 3.5 mph - N/A   Clear
8:55 PM 63.5 °F 57.4 °F 80% 29.98 in 10.0 mi Calm Calm - N/A   Scattered Clouds
8:56 PM 63.5 °F 57.4 °F 80% 29.98 in 10.0 mi Calm Calm - N/A   Scattered Clouds
9:15 PM 63.0 °F 57.2 °F 81% 29.99 in 10.0 mi Calm Calm - N/A   Mostly Cloudy
9:20 PM 62.8 °F 57.4 °F 82% 29.99 in 10.0 mi Calm Calm - N/A   Mostly Cloudy
9:38 PM 64.0 °F 57.4 °F 79% 29.98 in 10.0 mi SE 3.5 mph - N/A   Mostly Cloudy
9:56 PM 64.6 °F 56.5 °F 75% 29.98 in 10.0 mi SSE 4.6 mph - N/A   Scattered Clouds
10:15 PM 65.5 °F 55.4 °F 70% 29.98 in 10.0 mi SSE 5.8 mph - N/A   Scattered Clouds
10:16 PM 65.5 °F 55.2 °F 69% 29.98 in 10.0 mi SSE 4.6 mph - N/A   Scattered Clouds
10:35 PM 64.6 °F 55.9 °F 74% 29.97 in 10.0 mi SSE 4.6 mph - N/A   Scattered Clouds
10:36 PM 64.6 °F 56.1 °F 74% 29.97 in 10.0 mi SSE 4.6 mph - N/A   Scattered Clouds
10:58 PM 66.0 °F 54.7 °F 67% 29.97 in 10.0 mi SE 5.8 mph - N/A   Mostly Cloudy
11:16 PM 66.6 °F 54.7 °F 66% 29.97 in 10.0 mi SSE 4.6 mph - N/A   Overcast
11:36 PM 67.1 °F 54.7 °F 64% 29.97 in 10.0 mi SSE 5.8 mph - N/A   Overcast
11:55 PM 67.3 °F 54.5 °F 63% 29.97 in 10.0 mi South 8.1 mph - N/A   Overcast
11:56 PM 67.5 °F 54.5 °F 63% 29.97 in 10.0 mi South 8.1 mph - N/A   Overcast